COSMOS 2251 DEB, 35448

Orbit data source: Space-Track

COSMOS 2251 DEB, 35448 is space debris in LEO originally from a launch on Wed, 16 Jun 1993 UTC launched from the Plesetsk Missile And Space Complex (PKMTR). The debris from Iridium 33, an American commercial communications satellite, has been tracked extensively since its accidental collision with the defunct Russian satellite Cosmos 2251 in 2009. This event, occurring at high speed in low Earth orbit (LEO), generated thousands of pieces of space debris, significantly increasing the risk of further collisions. The Iridium 33 debris cloud has impacted space traffic management and orbital debris mitigation strategies, making it a subject of ongoing study in space situational awareness.

Loading next visibility...
Identifier
35448, 1993-036AKS
Orbit
LEO
Country
Flag of CISCIS
Related business
Manufacturer
Unknown
Mission
Spacecraft
Bus & Motor
Unknown
Mass
Unknown
Launch date (UTC)
1993-06-16 (33 years ago)
Launch vehicle
Unknown
Launch site
Plesetsk Missile And Space Complex (PKMTR)
Object type
Payload
Rocket body
Debris
Shape & HBR
Unknown shape, 0.1 m
Radar Cross Section
Small (<0.1 m²)

Expand to show TLE details & history
Last TLE update: 14 hours ago

TLE from 14 hours ago
0 COSMOS 2251 DEB
1 35448U 93036AKS 26104.31179399  .00001704  00000-0  39928-3 0  9996
2 35448  73.9027 215.6522 0010841   0.0414   0.0747 14.55333544891171
Epoch: 2026-04-14T07:28Z
TLE epoch observation values (Epoch: 2026-04-14T07:28:59.000Z)
Latitude
-0.00006°
Longitude
-99.08351°
Altitude
703.225 km
Speed
7.509 km/s
True Right ascension
14h 22m 36s
True Declination
0° 00' 00"
Sunlit
Object was in full shadow at epoch
Visualization orbit readout
Latitude
Unknown
Longitude
Unknown
Altitude
Unknown
Speed
Unknown
Apparent Right ascension
Unknown
Apparent Declination
Unknown
Sunlit
N/A
Visualization observer readout
Local Sidereal Time
03:37:18
Azimuth
Unknown
Elevation
Unknown
Doppler factor
Unknown
Orbital elements
Apogee altitude
713.576 km
Perigee altitude
698.216 km
Semi-major axis
7,084.033 km
Eccentricity
0.00108
Inclination
73.9027°
RAAN
215.6522°
Arg. of periapsis
0.0414°
True anomaly
0.07486°
Mean anomaly
0.0747°
Eccentric anomaly
0.07478°
Mean motion
3.64018 °/min
Orbital period
98.9 mins
BSTAR
0.00039928

Documentation

Showing up to 5 results
|